Regional Weather Roundup
Issued by NWS Kansas City/Pleasant Hill, MO

Home | Current Version | Previous Version | Graphics & Text | Print | Product List | Glossary Off
Versions: 1 2 3 4 5 6 7 8 9 10 11 12 13 14 15 16 17 18 19 20 21 22 23 24 25 26 27 28 29 30 31 32 33 34 35 36 37 38 39 40 41 42 43 44 45 46 47 48 49 50

000
ASUS43 KEAX 270004
RWREAX

WEATHER ROUNDUP FOR EASTERN KANSAS AND NORTHWEST MISSOURI
NATIONAL WEATHER SERVICE KANSAS CITY/PLEASANT HILL MO
700 PM CDT THU MAR 26 2015

KSZ040-057-103>105-MOZ028-029-037-043-270100-
...KANSAS CITY METROPOLITAN AREA...

CITY           SKY/WX    TMP DP  RH WIND       PRES   REMARKS
K.C. INTL      CLOUDY    48  29  47 CALM      30.06F
6HR MIN TEMP:  46; 6HR MAX TEMP:  51;

K.C. DOWNTOWN  CLOUDY    50  26  39 N3        30.06F
6HR MIN TEMP:  48; 6HR MAX TEMP:  53;

LEES SUMMIT    MOCLDY    48  26  42 NW6       30.06F
6HR MIN TEMP:  46; 6HR MAX TEMP:  52;

OLATHE - IXD   CLOUDY    48  29  47 NE3       30.06F
6HR MIN TEMP:  46; 6HR MAX TEMP:  52;

OLATHE - OJC   CLOUDY    49  26  41 NE3       30.06F
6HR MIN TEMP:  45; 6HR MAX TEMP:  52;

LAWRENCE       CLOUDY    50  27  40 CALM      30.05F

$$

MOZ001>008-011>017-020>025-030>033-038>040-044>046-053-054-270100-
...NORTHERN AND CENTRAL MISSOURI...

CITY           SKY/WX    TMP DP  RH WIND       PRES   REMARKS
ST. JOSEPH     CLOUDY    48  28  46 N5        30.08S
6HR MIN TEMP:  46; 6HR MAX TEMP:  51;

MOSBY          CLOUDY    48  27  43 W3        30.07F
WARRENSBURG    PTCLDY    46  28  49 NW3       30.07F
WHITEMAN AFB   PTCLDY    48  28  45 NW7       30.07S
6HR MIN TEMP:  46; 6HR MAX TEMP:  51;

CLINTON        CLEAR     48  30  49 NW5       30.08F
SEDALIA        CLEAR     49  30  48 NW7       30.08F
6HR MIN TEMP:  46; 6HR MAX TEMP:  51;

WARSAW         NOT AVBL
MARSHALL       PTCLDY    48  30  49 NW3       30.08F
CHILLICOTHE      N/A     49  27  42 NW8       30.07F
6HR MIN TEMP:  46; 6HR MAX TEMP:  52;

MOBERLY        CLEAR     48  25  40 NW8       30.06F
KIRKSVILLE     PTCLDY    46  25  43 N7        30.05F
6HR MIN TEMP:  46; 6HR MAX TEMP:  51;


$$

MOZ041-047>049-056>058-063>065-088>090-097-270100-
...EASTERN AND SOUTHERN MISSOURI...

CITY           SKY/WX    TMP DP  RH WIND       PRES   REMARKS
ST. LOUIS INTL PTCLDY    48  26  42 NW12      30.05R
6HR MIN TEMP:  43; 6HR MAX TEMP:  51;

SPIRIT OF STL  CLEAR     48  27  44 NW9       30.04S
COLUMBIA       CLEAR     47  29  49 NW10      30.06R
JEFFERSON CITY CLEAR     49  27  42 W12       30.06S
MEXICO         CLEAR     50  34  53 NW9       30.06R
HANNIBAL       CLEAR     48  19  32 NW7       30.05S
ROLLA          CLEAR     46  28  49 MISG      30.03S
LEBANON        CLEAR     48  25  40 NW7       30.06R
OSAGE BEACH    CLEAR     48  27  43 NW6       30.07R
SPRINGFIELD    CLEAR     49  28  44 NW8       30.07R
BRANSON        PTCLDY    50  28  43 NW13      30.07R
NEVADA         CLEAR     50  27  40 N6        30.10S
JOPLIN         CLEAR     50  28  42 N8        30.09S
WEST PLAINS    CLEAR     50  25  37 MISG      30.05R

$$

IAZ060-094-KSZ022-034>040-054-083-096-NEZ052-066-093-270100-
...KANSAS...SOUTHEAST NEBRASKA AND IOWA...

CITY           SKY/WX    TMP DP  RH WIND       PRES   REMARKS
TOPEKA         CLOUDY    51  26  37 CALM      30.07S
6HR MIN TEMP:  48; 6HR MAX TEMP:  53;

MANHATTAN      CLOUDY    53  29  39 SE5       30.04S
EMPORIA        MOCLDY    53  27  36 SW3       30.04F
CHANUTE        CLEAR     51  26  37 CALM      30.08F
WICHITA        MOCLDY    56  31  38 SW8       30.04F
OMAHA          LGT RAIN  36  33  89 N10       30.16R WCI  28
LINCOLN        LGT SNOW  35  33  92 NE13      30.15R FOG     WCI  26
FALLS CITY     LGT RAIN  45  28  51 NW16G22   30.11R
LAMONI         CLOUDY    44  25  47 N12       30.07R
DES MOINES     CLOUDY    42  23  46 N13       30.10R

$$



USA.gov is the U.S. government's official web portal to all federal, state and local government web resources and services.